This demonstration page uses our WeatherBlox Daily Observations layout. Learn more.

Left ArrowRight Arrow

Hourly Observations for February 6, 2016

Temp ( °F °C ) Dew Point ( °F °C ) Humidity (%) Winds ( mph kmh ) Pressure ( in mb ) Visibility ( mi km ) Precip ( " mm )
12:53 am 00:53 Clear 46 7.8 41 5 83 83 NE 5 7 30.41 1030 10 16 0.00 0.00
1:53 am 01:53 Clear 45 7.2 40 4.4 83 83 Calm 30.42 1030 10 16 0.00 0.00
2:53 am 02:53 Clear 43 6.1 38 3.3 82 82 Calm 30.42 1030 10 16 0.00 0.00
3:53 am 03:53 Clear 42 5.6 38 3.3 85 85 Calm 30.41 1030 10 16 0.00 0.00
4:53 am 04:53 Clear 41 5 37 2.8 86 86 Calm 30.42 1030 9 14 0.00 0.00
5:53 am 05:53 Clear 39 3.9 36 2.2 89 89 NW 5 7 30.42 1030 10 16 0.00 0.00
6:53 am 06:53 Clear 42 5.6 37 2.8 82 82 Calm 30.43 1030 10 16 0.00 0.00
7:53 am 07:53 Sunny 41 5 36 2.2 82 82 WNW 5 7 30.43 1031 10 16 0.00 0.00
8:53 am 08:53 Mostly Sunny 46 7.8 39 3.9 77 77 Calm 30.43 1031 10 16 0.00 0.00
9:53 am 09:53 Sunny 54 12.2 41 5 62 62 NNE 3 6 30.44 1031 10 16 0.00 0.00
10:53 am 10:53 Sunny 58 14.4 38 3.3 48 48 Calm 30.43 1031 10 16 0.00 0.00
11:53 am 11:53 Sunny 61 16.1 38 3.3 43 43 Calm 30.40 1030 10 16 0.00 0.00
12:53 pm 12:53 Sunny 64 17.8 38 3.3 38 38 Calm 30.37 1029 10 16 0.00 0.00
1:53 pm 13:53 Sunny 65 18.3 37 2.8 36 36 Calm 30.34 1027 10 16 0.00 0.00
2:53 pm 14:53 Sunny 67 19.4 37 2.8 33 33 Calm 30.32 1027 10 16 0.00 0.00
3:53 pm 15:53 Sunny 67 19.4 37 2.8 33 33 Calm 30.31 1026 10 16 0.00 0.00
4:53 pm 16:53 Sunny 65 18.3 40 4.4 40 40 SSW 3 6 30.32 1027 10 16 0.00 0.00
5:53 pm 17:53 Clear 59 15 40 4.4 49 49 Calm 30.32 1027 10 16 0.00 0.00
6:53 pm 18:53 Clear 56 13.3 41 5 57 57 Calm 30.34 1027 10 16 0.00 0.00
7:53 pm 19:53 Clear 51 10.6 42 5.6 71 71 NNE 6 9 30.35 1028 10 16 0.00 0.00
8:53 pm 20:53 Clear 51 10.6 40 4.4 66 66 NNW 5 7 30.36 1028 10 16 0.00 0.00
9:53 pm 21:53 Clear 49 9.4 41 5 74 74 N 5 7 30.37 1028 10 16 0.00 0.00
10:53 pm 22:53 Clear 51 10.6 41 5 69 69 NW 5 7 30.36 1028 10 16 0.00 0.00
11:53 pm 23:53 Clear 49 9.4 41 5 74 74 Calm 30.35 1028 10 16 0.00 0.00

Powered by AerisWeather